When you browse on this site, cookies collect data to enhance your experience and personalize the content and advertising you see.
Visit our Privacy Policy to learn more. By continuing to use the site, you agree to this use of cookies and data.
  • In Czech Republic
  • List of Countries
  • For 7 days
  • Water Temperature
  • Weather Map
  • Weather Widgets
  • user-avatar
    Login

    Hourly Weather Salzburg

    Today, 22 August, Thursday

    Time Temperature Precipitation Wind Pressure Humidity
    00:00 +7°C° 0 mm 0 mps 632 mmHg 96%
    01:00 +7°C° 0 mm 0 mps 632 mmHg 96%
    02:00 +7°C° 0 mm 0 mps 632 mmHg 96%
    03:00 +7°C° 0 mm 0 mps 632 mmHg 96%
    04:00 +7°C° 0 mm 0 mps 631 mmHg 96%
    05:00 +8°C° 0 mm 0 mps 632 mmHg 94%
    06:00 +9°C° 0 mm 0 mps 632 mmHg 92%
    07:00 +9°C° 0 mm 0 mps 633 mmHg 90%
    08:00 +12°C° 0.1 mm 0 mps 633 mmHg 82%
    09:00 +15°C° 0.1 mm 1 mps 634 mmHg 75%
    10:00 +18°C° 0.1 mm 1 mps 635 mmHg 67%
    11:00 +18°C° 0.3 mm 1 mps 635 mmHg 66%
    12:00 +19°C° 0.3 mm 1 mps 635 mmHg 65%
    13:00 +20°C° 0.3 mm 1 mps 635 mmHg 64%
    14:00 +19°C° 0.8 mm 1 mps 634 mmHg 71%
    15:00 +18°C° 0.8 mm 1 mps 634 mmHg 78%
    16:00 +16°C° 0.8 mm 1 mps 634 mmHg 85%
    17:00 +15°C° 0.4 mm 1 mps 633 mmHg 88%
    18:00 +14°C° 0.4 mm 1 mps 633 mmHg 91%
    19:00 +12°C° 0.4 mm 0 mps 633 mmHg 94%
    20:00 +11°C° 0.1 mm 0 mps 633 mmHg 94%
    21:00 +10°C° 0.1 mm 0 mps 633 mmHg 94%
    22:00 +10°C° 0.1 mm 0 mps 633 mmHg 94%
    23:00 +10°C° 0 mm 0 mps 633 mmHg 94%

    Tomorrow, 23 August, Friday

    Time Temperature Precipitation Wind Pressure Humidity
    00:00 +9°C° 0 mm 0 mps 632 mmHg 93%
    01:00 +9°C° 0 mm 0 mps 632 mmHg 93%
    02:00 +9°C° 0 mm 0 mps 632 mmHg 93%
    03:00 +10°C° 0 mm 1 mps 632 mmHg 93%
    04:00 +9°C° 0 mm 1 mps 632 mmHg 93%
    05:00 +10°C° 0 mm 1 mps 632 mmHg 92%
    06:00 +11°C° 0 mm 1 mps 632 mmHg 91%
    07:00 +11°C° 0 mm 0 mps 633 mmHg 89%
    08:00 +14°C° 0.1 mm 1 mps 633 mmHg 83%
    09:00 +16°C° 0.1 mm 1 mps 634 mmHg 76%
    10:00 +19°C° 0.1 mm 1 mps 635 mmHg 69%
    11:00 +19°C° 0.6 mm 1 mps 635 mmHg 70%
    12:00 +19°C° 0.6 mm 1 mps 634 mmHg 71%
    13:00 +20°C° 0.6 mm 1 mps 634 mmHg 72%
    14:00 +19°C° 1.1 mm 1 mps 634 mmHg 77%
    15:00 +18°C° 1.1 mm 1 mps 633 mmHg 82%
    16:00 +18°C° 1.1 mm 1 mps 633 mmHg 88%
    17:00 +15°C° 0.4 mm 1 mps 632 mmHg 89%
    18:00 +14°C° 0.4 mm 1 mps 632 mmHg 90%
    19:00 +12°C° 0.4 mm 0 mps 631 mmHg 91%
    20:00 +12°C° 0 mm 1 mps 631 mmHg 91%
    21:00 +12°C° 0 mm 1 mps 631 mmHg 91%
    22:00 +11°C° 0 mm 1 mps 631 mmHg 91%
    23:00 +11°C° 0 mm 1 mps 631 mmHg 91%

    Day after tomorrow, 24 August, Saturday

    Time Temperature Precipitation Wind Pressure Humidity
    00:00 +11°C° 0 mm 1 mps 631 mmHg 90%
    01:00 +10°C° 0 mm 1 mps 631 mmHg 90%
    02:00 +10°C° 0 mm 1 mps 630 mmHg 90%
    03:00 +10°C° 0 mm 1 mps 630 mmHg 89%
    04:00 +10°C° 0 mm 1 mps 630 mmHg 89%
    05:00 +11°C° 0 mm 1 mps 630 mmHg 87%
    06:00 +12°C° 0 mm 1 mps 631 mmHg 86%
    07:00 +13°C° 0 mm 1 mps 631 mmHg 84%
    08:00 +15°C° 0 mm 1 mps 632 mmHg 75%
    09:00 +19°C° 0 mm 1 mps 633 mmHg 65%
    10:00 +21°C° 0 mm 1 mps 634 mmHg 55%
    11:00 +22°C° 0.1 mm 1 mps 634 mmHg 53%
    12:00 +23°C° 0.1 mm 1 mps 634 mmHg 51%
    13:00 +23°C° 0.1 mm 1 mps 634 mmHg 49%
    14:00 +22°C° 0.9 mm 1 mps 633 mmHg 57%
    15:00 +21°C° 0.9 mm 1 mps 632 mmHg 65%
    16:00 +20°C° 0.9 mm 1 mps 632 mmHg 74%
    17:00 +18°C° 1.2 mm 1 mps 631 mmHg 79%
    18:00 +15°C° 1.2 mm 1 mps 630 mmHg 85%
    19:00 +13°C° 1.2 mm 1 mps 630 mmHg 90%
    20:00 +13°C° 0.1 mm 1 mps 630 mmHg 90%
    21:00 +12°C° 0.1 mm 1 mps 630 mmHg 89%
    22:00 +11°C° 0.1 mm 1 mps 630 mmHg 89%
    23:00 +11°C° 0 mm 1 mps 630 mmHg 89%

    25 August, Sunday

    Time Temperature Precipitation Wind Pressure Humidity
    00:00 +11°C° 0 mm 1 mps 629 mmHg 88%
    01:00 +11°C° 0 mm 1 mps 629 mmHg 88%
    02:00 +10°C° 0 mm 1 mps 629 mmHg 88%
    03:00 +10°C° 0 mm 1 mps 629 mmHg 87%
    04:00 +10°C° 0 mm 1 mps 629 mmHg 87%
    05:00 +11°C° 0 mm 1 mps 629 mmHg 85%
    06:00 +12°C° 0 mm 1 mps 630 mmHg 83%
    07:00 +13°C° 0 mm 1 mps 630 mmHg 82%
    08:00 +16°C° 0 mm 1 mps 631 mmHg 72%
    09:00 +19°C° 0 mm 1 mps 632 mmHg 63%
    10:00 +22°C° 0 mm 1 mps 633 mmHg 54%
    11:00 +22°C° 0.2 mm 1 mps 633 mmHg 54%
    12:00 +23°C° 0.2 mm 1 mps 633 mmHg 54%
    13:00 +23°C° 0.2 mm 1 mps 633 mmHg 54%
    14:00 +22°C° 0.8 mm 1 mps 632 mmHg 62%
    15:00 +21°C° 0.8 mm 1 mps 632 mmHg 69%
    16:00 +20°C° 0.8 mm 1 mps 632 mmHg 77%
    17:00 +18°C° 0.7 mm 1 mps 631 mmHg 81%
    18:00 +15°C° 0.7 mm 0 mps 630 mmHg 86%
    19:00 +13°C° 0.7 mm 0 mps 630 mmHg 91%
    20:00 +12°C° 0 mm 0 mps 630 mmHg 91%
    21:00 +13°C° 0 mm 1 mps 630 mmHg 91%
    22:00 +12°C° 0 mm 1 mps 630 mmHg 91%
    23:00 +12°C° 0 mm 1 mps 630 mmHg 92%

    26 August, Monday

    Time Temperature Precipitation Wind Pressure Humidity
    00:00 +11°C° 0 mm 1 mps 630 mmHg 92%
    01:00 +11°C° 0 mm 1 mps 630 mmHg 92%
    02:00 +11°C° 0 mm 1 mps 630 mmHg 92%
    03:00 +10°C° 0 mm 1 mps 630 mmHg 92%
    04:00 +10°C° 0 mm 1 mps 629 mmHg 92%
    05:00 +11°C° 0 mm 1 mps 630 mmHg 91%
    06:00 +12°C° 0 mm 1 mps 631 mmHg 89%
    07:00 +13°C° 0 mm 1 mps 631 mmHg 88%
    08:00 +15°C° 0 mm 0 mps 632 mmHg 79%
    09:00 +17°C° 0 mm 0 mps 633 mmHg 69%
    10:00 +20°C° 0 mm 0 mps 634 mmHg 59%
    11:00 +22°C° 0.2 mm 1 mps 634 mmHg 56%
    12:00 +23°C° 0.2 mm 1 mps 634 mmHg 53%
    13:00 +23°C° 0.2 mm 1 mps 634 mmHg 51%
    14:00 +22°C° 0.5 mm 1 mps 634 mmHg 57%
    15:00 +22°C° 0.5 mm 1 mps 633 mmHg 63%
    16:00 +21°C° 0.5 mm 1 mps 633 mmHg 69%
    17:00 +19°C° 0.4 mm 1 mps 632 mmHg 76%
    18:00 +16°C° 0.4 mm 1 mps 632 mmHg 84%
    19:00 +13°C° 0.4 mm 0 mps 631 mmHg 91%
    20:00 +12°C° 0 mm 0 mps 631 mmHg 91%
    21:00 +13°C° 0 mm 1 mps 631 mmHg 91%
    22:00 +12°C° 0 mm 1 mps 631 mmHg 91%
    23:00 +12°C° 0 mm 1 mps 631 mmHg 91%

    27 August, Tuesday

    Time Temperature Precipitation Wind Pressure Humidity
    00:00 +12°C° 0 mm 1 mps 631 mmHg 91%
    01:00 +11°C° 0 mm 1 mps 631 mmHg 91%
    02:00 +11°C° 0 mm 1 mps 631 mmHg 91%
    03:00 +11°C° 0 mm 1 mps 630 mmHg 91%
    04:00 +11°C° 0 mm 1 mps 630 mmHg 90%
    05:00 +12°C° 0 mm 1 mps 630 mmHg 89%
    06:00 +12°C° 0 mm 1 mps 631 mmHg 87%
    07:00 +13°C° 0 mm 1 mps 631 mmHg 86%
    08:00 +16°C° 0 mm 1 mps 632 mmHg 74%
    09:00 +20°C° 0 mm 1 mps 633 mmHg 63%
    10:00 +22°C° 0 mm 1 mps 633 mmHg 52%
    11:00 +23°C° 0 mm 1 mps 634 mmHg 48%
    12:00 +24°C° 0 mm 1 mps 634 mmHg 45%
    13:00 +25°C° 0 mm 1 mps 634 mmHg 42%
    14:00 +24°C° 0 mm 1 mps 633 mmHg 47%
    15:00 +23°C° 0 mm 2 mps 632 mmHg 52%
    16:00 +23°C° 0 mm 2 mps 632 mmHg 57%
    17:00 +19°C° 0.2 mm 2 mps 631 mmHg 65%
    18:00 +17°C° 0.2 mm 2 mps 630 mmHg 73%
    19:00 +15°C° 0.2 mm 2 mps 629 mmHg 82%
    20:00 +14°C° 0 mm 2 mps 629 mmHg 83%
    21:00 +14°C° 0 mm 2 mps 629 mmHg 84%
    22:00 +13°C° 0 mm 2 mps 629 mmHg 85%
    23:00 +12°C° 0 mm 2 mps 629 mmHg 85%
    Show more